[Iaude] MPEC V33: 2023 VR [a=1.69,e=0.51,i=2.0,H=27.7]
    mpec at marsden.cfa.harvard.edu 
    mpec at marsden.cfa.harvard.edu
       
    Sat Nov  4 12:03:45 EDT 2023
    
    
  
M.P.E.C. 2023-V33                              Issued 2023 November 4, 16:02 UT
     The Minor Planet Electronic Circulars contain information on unusual
         minor planets, routine data on comets and natural satellites,
         and occasional editorial announcements.  They are published
    on behalf of Division F of the International Astronomical Union by the
          Minor Planet Center, Smithsonian Astrophysical Observatory,
                          Cambridge, MA 02138, U.S.A.
			  
             Prepared using the Tamkin Foundation Computer Network
                              MPC at CFA.HARVARD.EDU
            URL https://www.minorplanetcenter.net/    ISSN 1523-6714
                                    2023 VR                                     
Observations:
     K23V00R*1C2023 11 03.37349102 12 02.308+22 38 59.68         20.49GVEV033G96
     K23V00R 1C2023 11 03.37869402 12 04.586+22 39 23.08         20.53GVEV033G96
     K23V00R 1C2023 11 03.38388102 12 06.822+22 39 47.05         20.97GVEV033G96
     K23V00R 1C2023 11 03.38907802 12 09.068+22 40 10.16         20.40GVEV033G96
     K23V00R  C2023 11 03.43473402 12 29.397+22 43 25.62         20.5 GVEV033H01
     K23V00R  C2023 11 03.43781802 12 30.870+22 43 39.58         20.3 GVEV033H01
     K23V00R  C2023 11 03.44803202 12 35.798+22 44 25.47         20.3 GVEV033H01
     K23V00R  C2023 11 03.45503402 12 39.220+22 44 56.98         20.8 GVEV033H01
     K23V00R KC2023 11 03.46053102 12 42.044+22 45 33.16         20.88GVEV033I52
     K23V00R KC2023 11 03.46218702 12 42.923+22 45 41.15         20.99GVEV033I52
     K23V00R KC2023 11 03.46384502 12 43.736+22 45 48.24         20.58GVEV033I52
     K23V00R  C2023 11 03.46417902 12 53.064+22 47 34.84         20.38wXEV033F52
     K23V00R  C2023 11 03.47723402 12 58.678+22 48 38.29         20.58wXEV033F52
     K23V00R  C2023 11 03.49021302 13 04.352+22 49 40.46         20.82wXEV033F52
     K23V00R mC2023 11 04.16815202 20 45.668+23 55 13.91         20.16GVEV033I52
     K23V00R mC2023 11 04.16847102 20 45.913+23 55 15.78         20.07GVEV033I52
     K23V00R mC2023 11 04.16879102 20 46.100+23 55 18.66         20.36GVEV033I52
     K23V00R mC2023 11 04.16911002 20 46.280+23 55 21.47         20.20GVEV033I52
Observer details:
F52 Pan-STARRS 2, Haleakala.  Observers J. Bulger, T. Lowe, P. Minguez, A.
    Schultz, I. Smith.  Measurers K. Chambers, T. de Boer, J. Fairlamb, H.
    Gao, M. Huber, C.-C. Lin, E. Magnier, Y. Ramanjooloo, R. Wainscoat, R.
    Weryk.  1.8-m Ritchey-Chretien + CCD.
G96 Mt. Lemmon Survey.  Observer J. B. Fazekas.  Measurers E. C. Beshore, D.
    Fay, J. B. Fazekas, D. C. Fuls, A. R. Gibbs, A. D. Grauer, H. Groeller, J.
    K. Hogan, R. A. Kowalski, S. M. Larson, G. J. Leonard, D. Rankin, R. L.
    Seaman, F. C. Shelly, K. W. Wierzchos.  1.5-m reflector + 10K CCD.
H01 Magdalena Ridge Observatory, Socorro.  Observers W. H. Ryan, E. V. Ryan.
    Measurer W. H. Ryan.  2.4-m f/8.9 Ritchey-Chretien + CCD.
I52 Steward Observatory, Mt. Lemmon Station.  Observer D. Rankin.  Measurers
    E. C. Beshore, D. Fay, J. B. Fazekas, D. C. Fuls, A. R. Gibbs, A. D.
    Grauer, H. Groeller, J. K. Hogan, R. A. Kowalski, S. M. Larson, G. J.
    Leonard, D. Rankin, R. L. Seaman, F. C. Shelly, K. W. Wierzchos.  1.0-m
    prime focus + CCD.
Orbital elements:
2023 VR                                                  Earth MOID = 0.0015 AU
Epoch 2023 Sept. 13.0 TT = JDT 2460200.5                Veres                   
M 316.33308              (2000.0)            P               Q                  
n   0.44876508     Peri.  235.38345     -0.22945685     -0.97295856             
a   1.6896238      Node   227.90454     +0.90427817     -0.20303796             
e   0.5052303      Incl.    2.04510     +0.36004241     -0.11012370             
P   2.20           H   27.71          G   0.15           U   8                  
Residuals in seconds of arc
231103 G96  0.3-  0.2+    231103 H01  0.1+  0.1+    231103 F52  0.0   0.2+
231103 G96  0.3+  0.2-    231103 H01  0.1+  0.1+    231103 F52  0.1+  0.1-
231103 G96  0.2+  0.2+    231103 I52  0.7-  0.2-    231104 I52  0.1-  0.0
231103 G96  0.1-  0.3-    231103 I52  0.2+  0.3+    231104 I52  0.3+  0.5-
231103 H01  0.0   0.0     231103 I52  0.2+  0.1-    231104 I52  0.0   0.1+
231103 H01  0.0   0.1+    231103 F52  0.0   0.2-    231104 I52  0.5-  0.6+
Ephemeris:
2023 VR                  a,e,i = 1.69, 0.51, 2                   q = 0.8360
Date    TT    R. A. (2000) Decl.     Delta      r    Elong.  Phase     V
2023 10 05    01 38 45.7 +16 10 44   0.2533  1.2432   161.6    14.7    26.0
...
2023 10 20    01 43 23.1 +17 30 15   0.1331  1.1281   172.4     6.7    24.1
...
2023 10 28    01 49 33.9 +18 50 29   0.07557 1.0688   172.7     6.8    22.8
...
2023 11 03    02 09 11.9 +22 11 40   0.03435 1.0262   171.1     8.6    21.0
2023 11 04    02 18 28.5 +23 37 59   0.02765 1.0193   170.7     9.0    20.6
2023 11 05    02 34 03.5 +25 53 32   0.02106 1.0124   169.5    10.3    20.0
...
2023 11 11    12 40 54.5 -05 53 28   0.02162 0.9729    36.3   142.9    26.6
...
2023 11 19    13 20 39.6 -13 34 11   0.07582 0.9255    32.6   144.8    29.5
...
2023 12 04    13 39 42.2 -15 49 19   0.1839  0.8595    42.6   129.0    29.3
M. P. C. Staff               (C) Copyright 2023 MPC           M.P.E.C. 2023-V33
    
    
More information about the Iaude
mailing list